Location: Zagreb
(45.8000°N, 16.0000°E)
Time: 15:23:55
(UTC+02:00)

ISS - Visible Passes

Search period start: 30 September 2016 00:00
Search period end: 10 October 2016 00:00
Orbit: 400 x 409 km, 51.6° (Epoch: 30 September)

Date Brightness Start Highest point End Pass type
(mag) Time Alt. Az. Time Alt. Az. Time Alt. Az.
30 Sep -3.3 20:24:05 10° SW 20:27:02 68° SSW 20:27:02 68° SSW visible
01 Oct -2.9 19:32:07 10° SW 19:35:13 43° SE 19:37:16 18° E visible
01 Oct -0.7 21:08:37 10° W 21:09:57 21° WNW 21:09:57 21° WNW visible
02 Oct -2.9 20:16:14 10° WSW 20:19:28 58° NNW 20:20:03 48° NNE visible
03 Oct -3.4 19:23:59 10° WSW 19:27:15 90° NE 19:30:02 13° ENE visible
03 Oct -0.9 21:01:03 10° WNW 21:02:42 22° NW 21:02:42 22° NW visible
04 Oct -2.1 20:08:35 10° W 20:11:40 37° NNW 20:12:36 30° NNE visible
05 Oct -2.6 19:16:09 10° W 19:19:20 50° NNW 19:22:26 11° NE visible
05 Oct -0.9 20:53:24 10° WNW 20:55:05 22° NW 20:55:05 22° NW visible
06 Oct -1.8 20:00:57 10° WNW 20:03:53 29° N 20:04:52 24° NNE visible
07 Oct -2.1 19:08:27 10° W 19:11:29 34° NNW 19:14:31 10° NE visible
07 Oct -1.0 20:45:35 10° WNW 20:47:15 22° NNW 20:47:15 22° NNW visible
08 Oct -1.8 19:53:12 10° WNW 19:56:05 28° N 19:56:58 24° NNE visible
09 Oct -1.8 19:00:45 10° WNW 19:03:38 28° N 19:06:32 10° ENE visible
09 Oct -1.2 20:37:34 10° NW 20:39:19 25° NW 20:39:19 25° NW visible
